Volver al catálogo

GLOBALSTAR M006

ActivoComunicacionesLEO
NORAD 25307·PAYLOAD·🇺🇸 United States

Lanzado Apr 24, 1998 desde Cape Canaveral Space Force Station

Loading…

Próximos Pases (próximas 24 horas)

TLE

ActualizadoSource: Space-Track

Época: Sep 14, 2026, 11:11 UTC

1 25307U 98023B   26257.46624544 -.00000091  00000-0 -31768-3 0  9996
2 25307  51.9926 164.2935 0002961 206.6137 324.7480 11.58171278269460

Sigue GLOBALSTAR M006 en tiempo real con AllMySat

Download on the App Store